Wind_Speed
15 16 16 16 16 16 17 17 18 19 20 20 19 18 18 19 20 13 6 7 6 11 8 5 11 18 19 5 8 12 4 5 4 6 9 15 16 15 22 22 16 7 18 18 34
16 17 17 17 17 17 17 17 18 20 19 18 18 17 16 19 18 13 14 11 3 11 7 12 2 5 2 5 3 5 3 6 6 14 7 13 14 14 15 20 20 20 21 26 27
18 18 18 17 17 17 17 17 19 19 20 18 15 14 14 15 5 2 8 13 6 6 8 2 9 3 5 4 5 7 7 7 17 23 24 14 13 4 15 20 21 23 18 17 26
18 19 18 18 17 17 17 17 18 19 17 16 14 12 12 5 3 0 2 8 6 6 5 4 4 3 2 2 3 3 13 23 15 22 5 6 7 4 15 21 22 19 18 12 15
19 19 19 19 17 17 17 18 18 16 16 14 11 11 3 3 8 5 1 6 8 10 11 8 8 3 3 4 4 5 5 7 7 8 7 15 12 9 17 22 21 18 18 15 11
19 20 20 19 17 16 16 16 16 14 15 11 8 8 2 3 4 3 3 7 7 11 9 15 13 10 4 10 3 5 6 4 8 8 16 15 12 6 14 20 20 16 16 14 12
21 21 20 17 16 16 16 15 15 13 12 9 7 5 5 10 5 3 9 6 7 14 10 22 24 10 8 7 3 2 4 8 9 6 6 14 7 6 10 18 18 13 14 12 15
22 21 18 16 16 16 16 15 15 11 10 7 6 1 6 4 6 10 10 15 11 13 20 23 26 11 5 8 7 4 8 2 7 11 7 7 4 8 8 17 15 13 14 12 11
23 22 18 17 16 16 15 16 15 11 8 8 5 2 7 4 6 10 15 15 20 16 19 23 12 6 7 7 8 2 6 4 8 14 6 4 6 16 13 16 16 14 13 12 11
24 21 18 17 17 16 16 20 13 8 5 4 9 5 8 1 4 7 9 17 10 9 10 10 3 5 6 5 7 6 6 5 4 7 18 10 8 13 16 16 15 11 10 12 13
23 21 19 17 14 15 21 6 4 2 5 8 11 7 7 18 7 4 7 11 8 8 6 6 4 8 11 14 16 15 10 6 9 9 7 18 11 19 19 17 16 14 9 13 13
22 20 19 16 12 14 15 4 7 6 7 14 13 5 11 3 5 9 6 3 4 7 8 8 11 11 16 16 18 16 8 8 7 13 10 15 18 20 20 20 20 17 13 14 15
21 20 19 16 14 14 7 9 8 12 3 6 1 2 1 2 5 6 3 7 7 6 10 9 9 14 18 17 18 17 8 5 4 6 11 3 8 19 18 17 20 19 15 16 18
19 17 16 16 12 12 4 11 12 11 2 6 5 2 4 7 6 7 9 5 4 10 10 9 13 19 19 15 15 15 18 14 13 9 8 12 7 19 22 21 24 21 16 18 17
18 15 14 16 17 10 11 12 10 7 1 4 4 6 5 4 6 2 11 2 8 9 6 9 12 15 20 20 14 14 19 16 10 11 6 11 2 7 23 22 24 22 18 17 17
17 14 15 9 12 12 14 12 8 1 2 2 6 7 8 9 10 6 3 6 5 6 12 10 13 14 14 19 21 17 18 17 14 5 6 15 8 8 19 23 22 21 21 21 16
18 14 16 16 6 12 12 7 2 3 0 5 6 8 9 9 9 3 6 8 5 4 6 10 17 17 17 18 22 18 13 8 8 5 5 14 10 16 18 22 25 28 27 25 19
19 17 16 19 10 13 12 3 4 8 11 10 8 11 9 6 4 8 9 6 10 7 9 7 11 10 17 15 14 17 10 8 10 7 6 12 7 15 15 22 30 28 27 25 24
17 14 12 15 13 6 3 3 3 7 10 8 11 7 7 12 9 4 5 6 7 10 5 5 11 23 17 18 18 23 15 14 10 13 10 7 8 17 12 13 20 25 24 26 26
11 10 20 16 5 7 1 6 4 6 8 6 7 8 9 10 10 11 7 7 9 13 7 5 8 14 19 10 19 16 16 11 8 11 14 6 4 5 7 15 14 23 29 28 26
4 3 5 12 5 1 4 6 5 9 7 5 9 7 9 8 9 10 8 10 8 11 9 8 4 15 17 6 12 15 14 14 9 7 10 6 7 10 10 2 6 21 27 26 26
6 3 12 5 1 4 5 2 1 3 4 2 0 6 7 10 5 9 12 10 7 7 7 5 5 5 21 20 18 17 13 13 11 9 4 5 16 3 6 9 7 6 28 25 27
3 5 8 6 3 4 4 1 4 1 6 6 6 7 9 8 7 7 10 11 13 5 3 6 4 6 16 8 7 5 15 18 10 6 16 5 6 3 12 10 5 12 9 9 14
3 3 0 2 5 5 5 6 7 7 5 2 2 7 8 7 5 7 11 13 14 7 8 6 3 7 10 19 17 21 24 22 21 6 11 14 15 5 12 19 10 22 20 17 14
3 3 5 4 5 7 7 8 7 7 4 4 2 7 5 5 8 9 13 10 17 3 7 1 7 10 16 19 16 18 22 20 17 16 10 11 6 5 13 9 12 13 24 17 15
3 4 9 9 10 2 5 6 10 3 7 6 5 9 8 6 6 8 9 8 5 10 9 11 8 11 17 18 18 20 25 18 16 17 9 4 4 17 19 16 19 16 18 20 18
10 14 4 7 7 8 2 2 7 6 3 2 7 6 7 9 8 8 9 10 13 14 11 7 7 6 11 13 18 11 11 19 20 19 14 7 8 19 12 19 10 7 13 13 12
Wind_Direction
350 347 344 341 338 336 336 335 335 334 333 332 329 328 328 327 319 312 267 295 176 172 159 200 207 228 240 235 203 128 115 333 261 258 69 92 84 89 118 135 156 118 132 137 130
348 345 341 339 336 334 332 332 332 331 329 328 326 325 329 330 323 271 258 242 215 169 160 230 233 347 340 234 204 90 75 230 260 286 114 107 117 128 115 107 115 122 126 134 133
346 344 339 338 336 334 331 331 332 330 327 325 323 323 327 332 287 273 236 227 197 185 194 295 302 216 240 6 262 114 149 1 276 281 287 122 87 54 119 121 130 133 143 144 138
346 341 338 336 335 333 332 333 334 332 330 326 320 323 324 336 347 305 150 215 181 195 247 260 231 56 318 282 274 184 153 171 231 240 194 90 90 68 127 133 132 140 140 152 139
344 341 337 332 332 332 333 334 336 335 333 327 319 326 347 229 258 249 219 186 188 196 236 234 267 137 240 276 286 237 169 185 202 150 113 106 80 80 119 130 134 146 144 162 152
345 340 336 332 330 331 331 332 335 336 338 328 319 327 302 258 129 161 196 196 199 196 248 256 256 249 230 261 181 240 303 306 207 151 115 115 104 92 124 131 138 155 156 167 156
342 340 338 336 332 328 326 327 331 331 337 336 325 335 275 247 344 292 192 241 234 223 234 261 270 278 297 316 166 35 17 338 358 358 93 95 24 114 138 135 142 167 168 169 164
344 343 342 338 332 325 322 323 326 315 323 333 318 8 257 262 273 292 302 300 224 244 241 261 279 295 354 303 265 146 143 41 346 5 180 121 195 233 240 145 150 182 179 166 159
345 342 339 337 331 321 321 319 314 306 301 311 322 240 276 286 251 261 239 272 280 223 251 263 282 312 316 296 288 90 251 140 172 217 266 177 145 220 178 157 163 189 183 166 156
345 342 339 336 330 323 325 320 305 293 299 271 266 301 276 289 31 352 323 247 272 283 231 252 286 281 285 271 257 246 144 146 223 182 234 178 196 181 173 166 171 202 184 163 155
347 345 341 336 327 324 334 347 355 5 217 254 281 228 337 339 319 253 257 302 271 304 286 254 246 242 248 259 260 272 276 151 198 239 158 221 170 191 182 168 176 196 189 166 158
347 344 340 337 322 314 318 333 15 292 312 291 265 258 243 37 292 282 213 242 247 247 278 289 255 244 265 267 274 280 258 274 322 199 188 222 192 186 190 185 176 197 188 172 165
345 343 339 335 321 302 261 39 339 342 286 297 83 270 64 273 266 291 275 206 237 249 249 251 267 257 252 264 274 277 241 211 155 282 218 161 177 180 194 194 176 194 194 181 172
342 340 335 331 317 312 340 12 355 331 311 195 216 136 264 207 265 216 203 231 250 227 264 243 266 273 272 251 254 270 273 268 127 115 242 232 242 188 186 200 177 190 192 186 178
336 330 331 324 306 312 355 340 330 314 98 128 122 160 253 231 252 98 116 185 264 273 243 254 272 271 271 275 261 253 272 281 217 161 271 285 212 246 178 194 180 186 188 189 185
329 316 317 339 308 292 340 323 309 328 107 120 46 358 350 343 314 297 164 158 201 277 295 287 290 275 273 277 273 275 263 274 287 148 239 267 249 261 179 186 182 182 188 194 191
323 299 292 295 267 335 335 313 328 246 325 41 358 345 324 291 298 22 18 320 290 276 260 256 260 277 276 280 285 276 269 262 274 276 212 226 246 256 192 178 173 186 189 190 197
320 290 282 272 272 314 314 327 252 64 41 9 3 305 272 287 322 32 359 315 327 345 311 281 280 257 255 252 259 272 254 232 244 236 259 244 247 258 186 187 175 183 187 187 192
323 302 272 272 267 260 341 305 3 25 31 358 314 334 3 349 355 346 295 18 10 38 30 320 334 319 256 272 246 267 265 260 239 261 274 260 269 266 180 173 177 186 184 186 190
329 300 270 253 211 269 295 250 324 76 34 345 323 9 350 347 344 347 341 32 6 359 19 287 309 303 307 292 277 238 253 270 248 235 251 270 260 252 257 189 184 177 178 186 188
302 262 230 160 177 257 236 262 80 104 100 357 340 335 331 328 341 332 326 332 37 341 352 320 14 308 319 306 262 282 243 250 251 226 237 263 264 208 269 249 185 179 179 182 184
320 286 137 166 206 220 243 51 267 316 64 295 47 322 344 335 337 323 311 310 347 326 323 5 275 297 290 288 288 280 278 234 237 259 261 241 252 278 141 17 252 259 179 184 186
293 276 157 188 248 286 336 197 121 164 66 21 322 359 344 322 317 268 304 319 309 278 45 345 350 335 322 322 295 289 335 328 248 183 240 239 275 271 104 42 59 6 91 151 206
285 296 182 179 232 269 1 341 341 130 141 151 33 294 293 278 316 336 324 309 318 341 26 339 256 242 269 280 298 307 317 315 312 204 231 243 254 226 148 142 276 58 30 37 15
233 321 8 318 357 356 352 340 316 313 123 87 282 301 340 359 341 316 316 336 334 6 349 286 286 307 297 290 318 309 302 301 309 298 220 244 266 236 189 128 97 75 51 358 333
352 353 343 302 316 223 266 232 278 1 36 360 339 342 356 327 347 350 350 341 304 326 337 322 305 321 313 309 318 300 305 290 292 291 261 252 355 88 96 63 67 69 67 26 346
7 346 309 295 298 298 293 42 348 16 336 33 16 6 324 11 344 313 293 281 273 277 280 273 293 325 280 314 315 301 349 360 341 305 289 207 136 110 69 94 102 75 87 69 6
Height
806 803 800 797 795 792 790 787 785 783 780 777 774 772 770 767 763 760 757 753 754 756 759 761 763 761 755 755 754 778 805 809 810 784 759 740 752 744 750 765 766 767 778 781 789
805 802 800 797 793 791 788 786 784 781 779 777 773 770 768 766 762 757 752 751 753 755 758 759 757 755 763 752 751 780 808 806 779 778 758 750 751 752 760 770 779 778 781 784 789
804 801 799 796 793 790 788 785 782 779 776 774 773 770 767 766 764 748 747 749 752 754 755 757 756 754 764 753 755 778 805 795 778 773 768 750 754 749 760 780 778 784 783 784 788
803 800 797 795 792 789 786 784 781 778 775 772 770 769 767 767 777 748 747 749 752 754 755 756 753 763 769 769 753 778 781 782 778 761 752 756 751 760 759 771 770 777 781 785 788
802 799 796 793 790 788 785 782 780 777 774 771 770 768 767 766 757 749 748 749 750 753 755 754 756 761 772 754 749 762 765 764 754 748 747 749 761 761 766 766 772 777 781 785 788
801 797 794 792 789 786 783 781 779 777 774 771 770 769 767 772 750 748 748 748 749 752 753 751 750 745 756 753 753 748 752 760 756 749 747 757 764 762 767 765 775 780 782 784 787
800 796 793 790 787 785 782 780 778 776 773 771 770 769 767 760 748 751 748 747 748 749 751 746 743 747 743 753 742 749 772 766 764 753 766 753 783 776 765 767 777 783 782 782 785
800 796 792 789 786 783 780 778 776 775 774 772 771 770 769 751 750 749 747 746 746 746 747 744 741 741 745 742 747 759 773 797 780 769 763 759 806 779 768 770 779 782 781 781 784
798 794 791 788 785 781 778 776 774 773 773 772 772 770 766 750 749 748 749 748 745 743 743 742 740 748 749 766 773 763 790 791 798 768 765 764 794 774 762 768 777 778 778 780 783
797 793 789 786 783 779 776 773 771 771 771 772 772 776 758 751 748 749 748 747 745 742 743 744 751 766 766 777 802 782 782 779 781 765 771 768 777 769 762 767 776 777 775 778 781
795 791 788 785 782 779 774 771 774 776 771 769 765 760 750 749 748 748 747 746 745 748 767 752 775 788 772 762 754 753 755 774 764 756 763 767 769 767 759 767 774 774 774 775 779
795 791 788 784 782 780 778 776 776 777 780 758 754 750 749 751 755 747 745 755 756 773 761 772 780 760 751 749 752 754 760 761 747 741 759 762 766 763 756 758 765 770 768 770 774
795 791 788 785 781 779 776 776 774 772 782 759 750 752 751 750 753 749 744 750 763 772 772 782 767 748 751 755 758 755 764 757 757 749 741 753 772 767 752 748 757 760 759 761 767
796 792 789 786 784 779 776 775 774 773 799 773 760 754 748 745 757 738 738 749 757 774 770 772 755 755 755 757 752 772 736 736 755 772 801 739 796 765 753 752 753 755 755 757 759
796 793 790 788 786 780 777 775 774 774 818 760 755 744 744 753 747 745 737 743 765 766 765 777 767 764 762 754 742 755 731 737 744 763 774 758 777 753 741 753 753 749 749 751 753
796 793 790 787 785 778 777 775 774 805 810 768 753 760 761 754 750 739 740 739 743 760 760 765 747 753 752 738 734 730 735 737 739 762 794 764 765 753 746 738 744 741 741 744 747
795 792 789 788 782 778 777 773 805 818 761 779 777 766 769 768 758 750 758 766 777 786 789 768 761 746 741 754 735 738 756 785 790 792 795 750 762 740 715 710 721 729 728 733 737
792 789 787 783 779 780 777 791 812 774 782 769 773 772 778 762 758 758 767 775 758 764 779 787 790 756 738 748 757 748 754 778 812 800 783 743 764 729 696 687 696 706 713 720 730
789 787 783 778 778 779 784 806 795 784 779 784 780 782 778 767 770 765 769 777 768 772 800 800 788 748 732 732 737 745 757 735 762 755 766 744 724 701 693 694 696 703 711 718 722
789 787 778 774 777 777 793 803 784 772 778 782 798 786 799 788 788 785 781 770 776 771 771 781 799 759 736 727 724 734 722 758 748 788 791 764 747 744 717 701 693 695 705 709 714
789 787 768 772 775 782 803 787 772 768 775 789 796 797 796 794 792 794 790 775 770 772 770 777 786 781 752 752 751 740 738 734 735 746 772 783 761 708 705 692 691 689 693 699 706
792 793 769 772 787 781 789 771 773 772 769 778 782 788 794 793 796 799 797 785 768 769 780 774 786 793 769 733 723 726 733 727 745 766 752 755 739 681 695 699 683 691 684 690 693
797 784 769 769 796 787 772 768 768 775 779 787 791 789 790 799 808 794 788 773 768 771 779 776 795 807 784 748 725 731 732 729 716 729 747 770 748 685 686 695 702 713 688 690 693
798 792 771 768 769 777 782 780 778 767 777 779 788 788 793 795 789 797 791 778 769 767 771 777 786 799 805 779 763 758 740 728 726 739 738 734 727 706 701 697 703 709 719 719 721
795 789 787 792 784 782 781 783 786 785 775 778 787 787 793 804 801 801 790 785 776 773 777 781 797 784 772 757 756 753 743 730 734 726 726 720 720 701 699 696 715 720 717 744 734
800 801 791 790 783 780 783 784 782 779 786 791 794 790 793 803 803 808 801 800 798 784 790 783 796 784 779 758 754 750 739 723 719 712 704 704 716 699 701 721 724 730 729 735 747
803 802 799 793 786 786 781 780 783 782 783 783 791 796 800 800 796 793 791 790 790 792 793 795 795 798 793 772 765 765 743 734 724 709 707 715 706 704 718 719 730 734 733 735 755